Regional Weather Roundup
Issued by NWS Midland/Odessa, TX

Current Version | Previous Version | Text Only | Print | Product List | Glossary On
Versions: 1 2 3 4 5 6 7 8 9 10 11 12 13 14 15 16 17 18 19 20 21 22 23 24 25 26 27 28 29 30 31 32 33 34 35 36 37 38 39 40 41 42 43 44 45 46 47 48 49 50
000
ASUS44 KMAF 241810
RWRMAF
MIDLAND AREA WEATHER ROUNDUP
NATIONAL WEATHER SERVICE MIDLAND TX
100 PM CDT WED MAY 24 2017

...IN SOUTHWEST TEXAS AND SOUTHEAST NEW MEXICO...

CITY           SKY/WX    TMP DP  RH WIND       PRES   REMARKS
ALPINE         SUNNY     79  40  25 SW13G21   30.06F
ANDREWS        FAIR      77  37  23 SW16G23   29.93F
ARTESIA        SUNNY     79  41  25 S8        29.90F
BIG SPRING     SUNNY     75  39  27 S12       29.94F
CARLSBAD       SUNNY     81  38  21 S13       29.88F
DRYDEN           N/A     80  33  18 S9        29.92F
FORT STOCKTON  SUNNY     81  34  18 S12G18    29.93F
GUAD PASS      SUNNY     74  39  28 W25       30.04F
HOBBS          SUNNY     75  32  20 S18       29.93F
MARFA          SUNNY     75  38  26 S9G21     30.05F
MIDLAND AIRPK  SUNNY     78  36  21 S9G17     29.93F
MIDLAND INTL   SUNNY     76  36  23 SW12      29.93F
ODESSA         SUNNY     76  35  22 SW10G20   29.94F
PECOS          SUNNY     81  31  16 SE7       29.91F
PRESIDIO       FAIR      78  47  33 S10       29.98F
SEMINOLE       SUNNY     77  36  22 SW15G23   29.93F
SNYDER         SUNNY     77  38  24 SW8G18    29.89F
WINK           SUNNY     79  32  18 S13G23    29.90F
$$
...OTHER STATIONS IN TEXAS...

CITY           SKY/WX    TMP DP  RH WIND       PRES   REMARKS
ABILENE        SUNNY     75  43  31 W10G17    29.89F
AMARILLO       SUNNY     77  37  23 SW15G24   29.84F
AUSTIN         MOSUNNY   82  44  26 NW10      29.87F
BROWNSVILLE    SUNNY     84  52  33 N9G20     29.92F
CORPUS CHRISTI SUNNY     80  50  34 VRB5      29.91F
DALLAS FTW     MOSUNNY   76  41  28 NW20G29   29.82F
DEL RIO        SUNNY     78  50  37 S7        29.91F
EL PASO        MOSUNNY   79  39  23 S8        29.97F
HOUSTON INT    MOSUNNY   79  49  34 W16G23    29.83F
LUBBOCK        SUNNY     79  36  21 W15G24    29.88F
SAN ANGELO     SUNNY     79  40  24 W7        29.91F
SAN ANTONIO    MOSUNNY   81  44  27 VRB6      29.90F
WACO           SUNNY     78  49  35 VRB7      29.85F
WICHITA FALLS  NOT AVBL
$$
...OTHER LOCATIONS IN NEW MEXICO...

CITY           SKY/WX    TMP DP  RH WIND       PRES   REMARKS
ALAMOGORDO     SUNNY     73  34  23 NW5       29.99F
ALBUQUERQUE    MOSUNNY   72  29  20 CALM      30.00F
CANNON AFB     SUNNY     73  37  26 SW15G21   29.90F
CLOVIS         SUNNY     73  39  29 W18G25    29.89F
HOLLOMAN AFB   SUNNY     76  38  25 SE5       30.01F
ROSWELL        SUNNY     78  36  21 S10       29.90F
RUIDOSO        SUNNY     72  28  20 N13G22    30.08F
SANTA FE       SUNNY     71  30  21 W14       30.01F
TRUTH OR CONSE SUNNY     79  32  18 S9G17     29.98F
TUCUMCARI      SUNNY     77  40  26 SW14G23   29.84F
$$




USA.gov is the U.S. government's official web portal to all federal, state and local government web resources and services.